Wind_Speed
36 38 39 39 40 39 38 37 32 25 27 22 21 23 19 14 7 3 5 7 4 4 14 10 5 8 7 11 16 22 25 25 24 25 28 32 34 35 34 25 23 17 14 18 23 24 19 21 18
36 37 38 39 44 42 42 39 34 29 29 24 18 22 21 17 16 12 15 13 5 9 5 12 16 21 15 13 21 25 29 31 31 32 33 35 34 25 18 31 34 18 12 18 20 20 21 25 16
34 35 38 41 45 45 45 42 36 33 30 25 22 16 19 18 19 20 19 17 19 18 16 17 22 25 34 31 27 27 31 31 33 34 35 33 30 26 21 38 34 28 13 18 18 23 19 21 17
32 32 36 40 46 46 46 44 40 35 31 27 21 17 14 16 15 18 19 22 23 26 28 23 25 27 30 34 32 34 34 33 34 35 35 32 23 34 31 37 31 21 14 14 19 21 13 17 21
29 32 34 40 43 45 46 46 44 41 35 30 25 22 21 18 19 18 21 25 27 29 36 38 34 33 33 33 36 37 35 30 33 29 25 21 35 27 36 33 30 22 18 17 15 8 18 19 18
29 30 31 35 39 43 43 47 46 43 40 37 33 30 27 25 22 23 22 27 32 31 33 35 37 34 36 37 31 34 36 35 31 31 26 28 30 36 37 28 28 21 22 22 14 11 15 20 21
25 28 28 29 33 38 41 42 46 47 44 42 38 35 33 29 26 26 28 28 28 32 35 39 39 40 40 45 40 38 38 35 38 35 32 29 37 38 30 28 24 17 22 16 9 6 15 21 23
17 21 26 28 30 34 38 38 45 48 46 45 43 41 39 38 37 35 33 33 35 37 38 38 42 43 40 39 41 39 38 37 34 35 36 35 40 39 28 29 19 20 12 12 9 8 14 18 20
16 20 21 23 25 29 32 35 37 45 46 46 46 44 41 38 37 36 36 35 36 38 39 41 41 41 44 44 39 27 29 47 45 41 41 42 40 31 30 29 10 17 10 7 13 11 14 15 21
20 19 22 26 28 29 28 30 32 33 38 42 45 45 43 41 39 39 41 42 40 39 37 40 42 45 40 46 47 46 45 46 46 44 40 35 37 32 25 19 13 18 10 13 14 13 14 23 26
22 24 25 26 25 26 28 30 32 32 34 35 35 37 36 35 36 36 36 30 34 42 45 44 35 34 46 48 48 46 42 43 42 37 30 32 33 28 30 18 16 17 9 15 15 22 26 27 31
17 21 24 25 27 28 30 32 33 33 33 32 33 35 34 36 35 33 31 27 25 27 33 39 41 43 45 44 42 42 44 39 34 40 35 39 37 33 27 18 16 13 13 17 17 22 23 28 24
14 15 14 13 16 20 23 26 28 29 31 31 31 29 28 27 26 25 25 26 28 27 27 27 27 27 30 33 34 34 32 30 30 31 32 35 37 19 15 15 20 16 18 19 21 20 24 24 15
16 17 16 13 11 12 14 16 17 19 20 18 18 17 17 18 19 19 19 21 22 22 22 20 20 19 19 19 17 17 17 17 18 18 20 23 22 16 17 22 18 20 22 20 24 24 25 19 18
21 20 18 17 16 15 14 13 12 12 12 12 14 14 14 15 15 15 13 11 7 6 4 4 4 4 3 7 10 10 11 10 10 11 13 13 8 12 22 22 14 17 20 21 22 19 15 14 15
30 29 19 20 20 19 18 17 16 14 12 11 12 11 9 8 6 5 6 7 6 4 4 4 4 7 14 22 18 9 6 5 9 11 16 17 14 9 7 10 15 19 15 15 14 10 14 18 19
31 27 20 24 25 26 26 24 21 20 21 21 21 21 19 16 15 16 15 15 19 22 25 27 27 21 22 19 22 20 21 18 16 14 16 18 14 12 8 6 6 11 20 24 25 24 22 22 17
30 25 21 21 26 29 30 31 29 30 30 29 28 31 32 32 30 31 33 31 25 27 26 24 21 21 18 15 16 14 16 15 15 17 15 20 12 11 7 4 7 15 21 25 25 27 26 21 19
30 27 24 23 23 25 26 26 29 29 30 31 31 29 30 31 32 28 26 25 27 24 19 18 20 17 15 13 15 16 14 15 18 13 9 14 14 15 14 16 20 28 26 26 25 22 21 31 30
27 28 30 29 28 26 24 23 24 27 30 29 28 27 25 28 27 23 23 20 19 16 17 15 13 14 13 15 16 13 15 14 14 16 15 20 21 19 18 20 19 21 25 29 27 28 29 30 34
24 23 26 26 26 28 25 26 26 25 25 26 25 25 24 23 20 20 17 13 10 9 12 11 13 17 17 15 14 14 18 20 20 20 18 20 20 21 21 19 22 23 27 29 30 31 34 39 42
22 23 23 22 23 22 25 19 20 20 20 20 21 21 19 21 17 13 11 8 10 8 7 9 12 13 14 16 18 18 19 19 20 22 24 26 27 29 32 32 32 33 36 35 34 32 39 43 45
21 20 20 22 21 21 19 20 17 15 15 14 13 17 13 14 10 9 8 8 9 8 7 6 9 13 14 17 17 20 23 24 25 26 26 27 29 32 33 33 34 36 38 40 41 41 46 46 52
23 22 20 19 21 21 18 18 16 16 15 13 10 8 5 9 11 10 10 13 13 13 13 14 14 16 19 20 21 22 24 27 28 29 32 34 37 39 41 42 41 42 43 43 45 47 52 56 54
25 23 20 16 16 17 18 16 15 13 14 13 11 9 9 8 7 8 9 10 11 13 14 15 17 19 20 21 24 27 28 29 31 32 34 36 38 42 45 45 45 44 45 51 50 54 56 56 56
27 26 22 19 16 15 13 12 11 8 7 6 4 4 4 3 4 6 7 9 11 11 14 17 20 22 23 25 27 29 31 33 35 36 36 38 43 45 49 50 50 50 52 54 58 58 58 64 70
28 23 23 18 18 15 12 10 7 5 4 3 2 3 5 6 7 9 11 13 17 20 20 21 23 26 29 31 34 36 38 39 41 42 44 45 48 52 56 57 57 60 61 65 66 69 73 74 73
28 28 22 22 19 17 16 14 12 10 9 9 10 10 11 13 13 15 15 17 20 23 24 26 27 30 32 36 37 39 42 44 48 50 52 53 54 60 62 64 66 69 70 71 73 75 73 74 71
32 26 25 24 24 20 19 18 17 15 16 16 15 16 17 18 18 20 22 24 26 28 29 30 32 34 37 40 42 44 48 51 55 58 58 59 63 65 68 71 72 75 77 77 74 71 69 64 64
40 35 33 30 28 25 23 21 20 20 21 21 20 21 23 25 23 25 27 28 31 33 34 36 38 39 42 45 51 54 56 59 62 63 64 65 68 71 75 78 79 80 77 72 67 59 61 67 72
Wind_Direction
183 186 187 187 190 194 190 189 193 196 204 210 211 217 226 231 236 197 234 120 118 256 232 218 251 290 352 327 316 317 319 323 320 316 316 321 324 327 326 352 359 347 341 339 348 356 358 21 30
181 185 186 189 190 193 194 193 197 201 204 210 211 217 221 230 222 217 240 236 205 190 198 228 247 248 286 325 330 320 316 312 311 313 318 321 329 329 325 343 344 340 327 331 338 358 346 6 16
180 185 187 189 192 194 196 194 194 201 206 201 209 220 227 237 234 237 242 247 249 240 214 215 232 247 256 280 296 305 307 309 306 308 307 320 330 332 323 331 340 333 317 316 323 356 341 2 30
182 185 191 193 195 195 199 197 198 198 199 201 206 211 224 242 246 228 226 239 251 240 235 237 239 246 262 273 289 294 299 304 306 305 308 312 317 315 324 332 339 326 316 337 348 346 359 350 356
186 189 192 195 200 199 201 202 203 208 206 206 210 222 228 233 237 237 235 238 241 241 242 247 251 256 264 272 288 289 294 297 303 312 318 314 312 319 321 323 327 319 314 321 354 343 351 4 354
186 195 196 202 204 205 209 207 207 211 215 220 225 231 235 237 240 240 233 234 237 239 244 248 253 261 263 271 283 283 287 299 297 301 297 291 303 311 320 314 325 309 303 313 333 344 304 327 331
185 195 202 204 206 211 215 218 217 218 224 229 231 239 242 244 249 248 245 243 247 243 250 249 257 262 273 268 277 283 292 290 293 294 295 299 301 307 312 307 329 307 310 327 341 355 325 316 316
183 188 192 202 206 211 216 221 224 227 229 235 237 244 244 249 251 251 243 248 258 260 259 259 262 270 272 274 280 284 287 284 287 292 295 297 298 299 312 309 300 321 286 333 343 307 315 320 319
190 199 201 201 205 212 216 223 227 228 231 236 238 244 247 250 249 249 250 255 259 259 263 266 267 271 274 277 278 288 289 291 294 293 296 297 296 298 296 310 286 294 319 324 335 305 296 306 315
208 206 201 210 212 211 214 222 226 228 232 235 238 243 245 246 248 249 251 252 255 254 247 262 266 268 271 274 277 281 280 281 289 292 299 288 290 291 292 294 269 297 299 309 305 301 301 314 315
205 210 217 215 217 218 219 221 226 228 232 236 239 242 245 245 247 250 250 257 257 254 252 260 260 260 270 278 278 278 281 284 287 286 271 279 292 294 299 285 286 302 301 320 300 303 310 317 318
197 204 208 212 216 222 225 229 232 237 239 241 244 245 248 248 254 252 254 261 271 266 259 259 263 269 274 275 282 281 285 282 283 281 283 279 280 287 281 298 303 291 301 303 287 303 314 320 313
171 176 175 186 205 216 222 225 227 230 234 235 235 238 241 243 246 249 254 255 254 254 255 256 259 264 268 277 278 282 284 286 286 287 287 282 278 270 283 286 289 288 290 297 300 308 316 320 324
137 144 144 141 157 181 195 205 212 216 217 217 220 224 230 235 237 240 243 245 247 249 250 254 258 266 270 279 289 298 303 303 304 307 309 295 285 228 265 277 274 286 296 303 309 312 312 324 322
116 114 119 121 118 119 134 150 164 176 183 195 205 209 220 233 236 235 235 237 233 231 239 242 255 275 286 309 316 314 312 329 336 342 356 356 312 277 267 265 277 300 303 304 312 313 321 323 321
103 94 94 108 113 115 116 117 115 116 131 153 170 173 179 195 183 152 134 128 129 118 105 91 66 63 65 65 54 17 355 321 16 20 32 27 22 347 317 285 312 311 318 327 313 309 299 303 308
98 106 126 104 103 102 104 104 106 109 105 108 109 107 106 109 118 122 114 102 96 87 96 92 78 90 82 73 52 50 47 39 34 31 22 15 25 30 36 34 356 347 339 330 318 311 295 301 305
122 124 118 109 103 101 102 101 99 94 97 96 100 105 104 104 106 107 101 97 97 85 94 84 80 86 74 68 64 54 40 50 38 34 43 34 16 358 0 331 309 325 328 331 328 333 315 294 298
123 123 116 106 103 105 106 105 101 98 99 98 98 100 103 108 111 111 110 101 89 82 81 67 78 68 51 37 30 23 21 17 9 21 34 26 12 2 343 324 315 334 326 321 319 312 294 291 290
123 120 116 111 103 99 107 111 109 111 107 104 102 99 97 96 104 117 123 117 106 92 73 79 71 47 36 13 7 3 2 359 344 349 351 349 347 348 333 326 317 308 313 318 318 311 302 297 296
130 125 119 114 112 107 103 103 101 103 105 106 100 97 97 93 89 90 97 100 114 113 88 71 48 39 26 35 22 10 8 10 2 0 341 338 339 341 334 328 323 320 319 316 311 309 313 312 306
140 136 128 123 118 116 114 108 114 109 104 101 100 102 96 96 92 90 85 76 79 163 94 48 37 22 18 20 17 10 4 357 350 346 341 337 337 335 333 330 326 324 323 321 313 307 308 307 300
147 140 136 132 128 129 125 123 122 114 108 102 104 108 105 96 93 86 74 67 66 59 49 19 22 46 40 35 25 16 10 6 1 356 351 346 343 340 337 330 325 323 321 316 310 308 309 304 296
156 153 149 142 136 131 128 125 123 117 114 111 106 101 115 100 95 100 82 68 61 53 42 32 24 19 14 5 360 356 351 347 343 340 341 341 339 338 336 333 326 321 318 315 313 308 310 309 304
167 162 159 157 147 141 136 134 129 129 124 121 117 109 97 82 65 40 35 35 23 17 13 8 1 1 355 349 348 347 343 338 334 332 330 331 330 331 329 326 324 319 316 314 313 313 308 302 297
179 174 174 171 167 157 152 153 152 155 142 127 111 91 62 30 353 350 359 358 349 348 350 349 344 343 341 340 339 335 336 336 334 332 327 328 327 325 325 323 323 320 319 317 315 310 303 298 302
192 190 187 188 187 182 177 185 189 202 233 250 259 282 298 302 311 323 334 339 339 337 336 338 335 332 333 332 333 337 338 336 333 331 327 325 323 324 324 324 324 322 320 319 317 315 314 309 305
198 202 197 199 207 199 204 209 208 221 240 257 270 279 286 294 303 312 319 326 327 327 325 328 328 328 329 328 330 334 333 330 329 329 328 327 326 325 325 324 325 324 322 322 320 319 312 308 308
213 205 212 216 221 216 217 227 231 235 243 249 262 277 283 288 299 307 315 317 317 318 319 325 327 328 330 328 330 331 329 327 328 331 332 328 326 326 326 327 326 326 325 322 319 314 314 309 309
214 214 216 217 223 227 230 238 243 243 251 263 272 276 284 290 297 301 303 306 309 311 317 323 327 329 329 331 329 330 328 328 329 331 329 327 327 327 328 328 328 327 324 320 318 315 313 312 312
Height
10988 10993 10998 11003 11009 11013 11017 11020 11022 11024 11026 11026 11027 11028 11030 11033 11037 11039 11036 11037 11038 11037 11037 11037 11036 11035 11031 11029 11029 11029 11027 11025 11022 11021 11019 11017 11015 11012 11010 11008 11006 11004 11002 10999 10997 10994 10989 10985 10982
10985 10991 10996 11001 11006 11010 11014 11018 11021 11022 11025 11025 11027 11029 11031 11033 11037 11037 11038 11038 11039 11038 11037 11035 11035 11033 11029 11027 11028 11027 11026 11024 11021 11019 11017 11016 11013 11010 11008 11006 11005 11003 11000 10998 10996 10993 10988 10985 10983
10985 10990 10994 10998 11003 11007 11011 11015 11019 11021 11022 11025 11027 11028 11030 11032 11034 11035 11037 11038 11039 11039 11036 11032 11030 11029 11028 11027 11027 11026 11025 11022 11020 11018 11016 11015 11013 11010 11007 11005 11003 11001 10999 10997 10995 10992 10988 10985 10982
10984 10989 10993 10996 11001 11005 11009 11013 11017 11020 11021 11023 11026 11028 11030 11030 11031 11033 11035 11037 11037 11037 11037 11034 11032 11030 11029 11028 11027 11025 11024 11021 11019 11017 11015 11013 11013 11009 11006 11003 11003 11000 10998 10996 10994 10992 10988 10985 10982
10984 10987 10991 10995 10999 11003 11006 11010 11013 11017 11020 11022 11024 11026 11028 11028 11029 11030 11032 11033 11034 11034 11033 11032 11032 11030 11029 11028 11027 11024 11021 11020 11018 11016 11014 11012 11009 11006 11004 11002 11001 10999 10997 10995 10993 10992 10989 10986 10983
10983 10987 10991 10995 10998 11002 11005 11008 11012 11014 11017 11020 11022 11025 11026 11026 11027 11029 11029 11030 11031 11031 11031 11031 11030 11029 11028 11027 11027 11021 11019 11018 11016 11014 11013 11011 11006 11003 11002 11000 10999 10998 10996 10993 10991 10989 10988 10985 10983
10982 10986 10990 10994 10997 11000 11003 11006 11009 11011 11013 11016 11019 11022 11025 11024 11026 11028 11028 11029 11030 11030 11030 11030 11028 11027 11026 11024 11022 11018 11016 11014 11012 11011 11009 11007 11004 11001 10999 10997 10996 10995 10994 10991 10989 10987 10986 10984 10982
10981 10984 10988 10991 10994 10997 11001 11003 11005 11009 11011 11013 11016 11019 11021 11022 11024 11025 11026 11027 11027 11027 11026 11026 11026 11024 11021 11021 11019 11016 11014 11011 11009 11008 11007 11005 11001 10999 10997 10995 10994 10992 10991 10989 10987 10985 10984 10982 10980
10982 10983 10985 10988 10991 10993 10996 10999 11001 11004 11007 11010 11013 11015 11017 11018 11020 11020 11022 11023 11024 11023 11021 11021 11021 11019 11016 11016 11016 11015 11011 11005 11006 11004 11003 11000 10998 10996 10995 10995 10993 10991 10988 10987 10986 10984 10981 10981 10979
10980 10981 10983 10984 10986 10989 10992 10994 10996 10999 11001 11004 11007 11010 11013 11014 11015 11016 11017 11017 11018 11019 11015 11015 11014 11014 11014 11011 11011 11010 11008 11003 11001 11000 10999 10994 10993 10992 10992 10992 10990 10988 10986 10985 10984 10982 10981 10978 10976
10977 10979 10980 10982 10984 10985 10987 10989 10991 10994 10997 10999 11002 11004 11006 11007 11009 11009 11010 11010 11010 11010 11011 11013 11013 11009 11010 11008 11007 11005 11003 11000 11000 10998 10996 10991 10989 10990 10989 10989 10988 10986 10985 10984 10983 10981 10979 10976 10974
10974 10975 10977 10979 10980 10982 10984 10986 10988 10990 10992 10994 10996 10998 11001 11003 11003 11004 11005 11005 11005 11005 11005 11006 11007 11007 11005 11005 11003 11001 10997 10996 10994 10992 10990 10987 10985 10986 10987 10986 10986 10985 10984 10982 10981 10979 10977 10974 10971
10973 10973 10975 10976 10976 10978 10980 10982 10985 10987 10989 10991 10992 10994 10996 10997 10999 10999 10998 10999 11000 11001 11001 11001 11002 11002 11001 11000 11000 10998 10995 10994 10991 10989 10987 10983 10981 10984 10985 10984 10985 10983 10983 10981 10979 10977 10975 10974 10971
10974 10973 10974 10975 10975 10975 10977 10979 10981 10984 10985 10987 10988 10989 10991 10992 10993 10994 10995 10996 10997 10998 10999 10999 11000 11000 10999 10998 10996 10994 10992 10990 10989 10987 10983 10978 10976 10981 10980 10982 10983 10981 10981 10979 10978 10976 10974 10972 10971
10976 10976 10976 10976 10975 10975 10976 10977 10978 10980 10982 10983 10985 10986 10987 10990 10992 10994 10996 10996 10996 10996 10997 10997 10997 10996 10996 10994 10992 10991 10991 10991 10989 10987 10983 10978 10976 10976 10978 10980 10981 10980 10979 10977 10975 10973 10972 10972 10970
10976 10980 10984 10980 10978 10977 10978 10979 10981 10982 10982 10982 10984 10986 10988 10991 10993 10994 10994 10993 10994 10995 10995 10995 10995 10995 10995 10995 10993 10991 10990 10989 10989 10986 10984 10981 10980 10979 10979 10979 10979 10978 10976 10976 10973 10970 10968 10967 10966
10978 10984 10991 10985 10981 10979 10980 10981 10983 10984 10985 10985 10986 10987 10989 10991 10993 10994 10994 10995 10997 10997 10998 10999 10998 10998 10998 10998 10996 10993 10991 10989 10988 10987 10986 10983 10982 10980 10979 10978 10977 10977 10974 10973 10971 10969 10967 10964 10961
10977 10986 10988 10987 10984 10983 10984 10984 10986 10986 10987 10988 10990 10990 10992 10994 10996 10998 10999 11000 11000 11001 11001 11001 11001 11000 11000 10999 10998 10996 10994 10991 10990 10988 10986 10984 10983 10981 10979 10977 10976 10974 10972 10969 10966 10964 10963 10961 10961
10983 10987 10988 10988 10987 10987 10988 10989 10987 10990 10991 10993 10995 10997 10998 10999 11000 11002 11003 11003 11003 11003 11003 11003 11003 11003 11002 11000 10998 10996 10994 10991 10990 10988 10987 10985 10983 10981 10980 10978 10975 10972 10969 10967 10964 10961 10960 10957 10954
10987 10989 10989 10989 10990 10991 10992 10992 10992 10994 10996 10997 11000 11000 11002 11003 11003 11004 11004 11005 11006 11006 11005 11005 11005 11005 11003 11001 10999 10997 10994 10992 10990 10989 10987 10985 10983 10982 10980 10977 10974 10971 10968 10964 10960 10958 10955 10951 10947
10989 10992 10990 10991 10993 10994 10997 10997 10998 11000 11000 11001 11002 11004 11005 11006 11007 11007 11008 11008 11008 11007 11007 11006 11005 11005 11004 11002 11000 10998 10996 10994 10991 10988 10986 10983 10981 10979 10977 10974 10971 10967 10963 10959 10955 10951 10947 10943 10938
10991 10992 10993 10994 10995 10997 10998 11002 11002 11003 11005 11005 11005 11006 11007 11008 11009 11009 11010 11010 11009 11008 11008 11007 11007 11006 11004 11002 10999 10997 10995 10993 10991 10988 10985 10982 10979 10975 10971 10968 10964 10960 10956 10953 10949 10944 10940 10935 10929
10992 10994 10995 10995 10997 10998 11001 11002 11004 11004 11006 11006 11008 11008 11008 11009 11010 11010 11010 11010 11010 11009 11008 11008 11006 11005 11004 11002 11001 10998 10996 10993 10990 10987 10984 10980 10976 10972 10969 10965 10960 10955 10949 10944 10940 10935 10929 10924 10916
10991 10993 10995 10996 10997 11000 11002 11003 11005 11005 11007 11008 11008 11009 11009 11010 11011 11011 11010 11009 11009 11009 11008 11006 11005 11003 11002 11001 10999 10997 10993 10990 10987 10984 10980 10975 10971 10967 10962 10957 10952 10947 10942 10937 10932 10926 10920 10912 10906
10990 10993 10995 10998 10999 11000 11002 11004 11006 11007 11008 11010 11010 11010 11010 11010 11011 11010 11009 11008 11008 11006 11006 11005 11003 11002 11000 10999 10996 10993 10991 10988 10984 10980 10976 10971 10966 10962 10957 10952 10946 10940 10934 10929 10922 10916 10908 10901 10892
10988 10991 10994 10997 10999 11000 11002 11005 11006 11007 11008 11008 11010 11009 11009 11010 11010 11010 11009 11008 11007 11007 11006 11003 11001 10999 10997 10995 10993 10991 10988 10983 10979 10976 10972 10967 10961 10955 10949 10944 10938 10931 10924 10916 10908 10902 10896 10887 10877
10988 10991 10991 10995 10997 10998 11001 11004 11005 11006 11007 11007 11008 11009 11009 11009 11008 11007 11006 11005 11003 11001 11001 11000 10998 10995 10992 10990 10987 10983 10980 10976 10973 10969 10964 10960 10953 10947 10938 10932 10926 10918 10909 10902 10893 10884 10874 10863 10853
10983 10985 10990 10991 10996 10997 10998 11000 11002 11004 11005 11006 11006 11007 11007 11006 11005 11004 11003 11002 11000 10999 10997 10995 10993 10990 10988 10984 10980 10977 10973 10969 10964 10960 10954 10947 10941 10933 10926 10918 10910 10901 10892 10884 10874 10862 10852 10841 10831
10978 10983 10985 10987 10991 10993 10994 10996 10999 11001 11003 11004 11004 11003 11003 11002 11001 10999 10998 10997 10996 10995 10993 10991 10988 10985 10982 10977 10973 10969 10964 10959 10953 10948 10942 10935 10927 10920 10913 10903 10893 10883 10872 10862 10853 10843 10833 10823 10815
10968 10973 10977 10981 10985 10987 10989 10992 10995 10997 10999 11000 11000 11000 10998 10996 10997 10996 10994 10993 10991 10989 10986 10984 10982 10979 10975 10969 10963 10959 10955 10949 10942 10936 10929 10922 10914 10906 10896 10886 10876 10866 10855 10844 10834 10825 10815 10805 10796